Погода в Яйладагы

Турция     35°53′54″N   36°03′40″E
темп.,
°C
ветер,
м/с
пор.,
м/с
влажн.,
%
обл.,
%
осадки,
мм/ч
давл.,
гПа
погр.,
м
16 апреля, пт
пт1600:00+13ююз014767 0.0 101810
03:00+14вюв0141100 0.0 101710
06:00+14вюв2238100 0.0 101614
09:00+18в224899 0.0 1017115
12:00+22всв2242100 0.0 1017493
15:00+23ссв1141100 0.0 1016776
18:00+20с116014 0.0 101620
21:00+17в22555 0.0 101611
17 апреля, сб
сб1700:00+17вюв11555 0.0 101611
03:00+17вюв225418 0.0 101614
06:00+16в33565 0.0 101628
09:00+21в33525 0.0 1017206
12:00+24всв22440 0.0 1017679
15:00+25зсз22455 0.0 1016676
18:00+21св1159100 0.0 101612
21:00+20юв2252100 0.0 101711
18 апреля, вс
вс1800:00+18зюз1149100 0.0 101711
03:00+18юв1146100 0.0 101711
06:00+19вюв223999 0.0 101711
09:00+23всв1142100 0.0 1018122
12:00+27св113614 0.0 1017519
15:00+26всв113972 0.0 1017311
18:00+24ююз1151100 0.0 101711
21:00+22вюв2244100 0.0 101711
19 апреля, пн
пн1900:00+22вюв2244100 0.0 101612
03:00+22в3344100 0.0 101520
06:00+21в5448100 0.0 101446
09:00+24в5655100 0.0 1014181
12:00+27в4444100 0.0 1013335
15:00+29в3339100 0.0 1011378
18:00+27вюв2248100 0.0 101017
21:00+25вюв2237100 0.0 101014
20 апреля, вт
вт2000:00+24вюв323398 0.0 100915
03:00+21ююз334497 0.0 100920
06:00+17ю346848 0.0 100945
09:00+18юз57710 0.0 1013534
12:00+19з355410 0.0 1013613
15:00+19з58684 0.0 1013615
18:00+16з36730 0.0 1014537
21:00+13юз128511 0.0 101569